Location: Niverville
(49.6028°N, 97.0419°W)
Time: 05:04:22
(UTC-05:00)

Amateur Radio Satellites - All Passes

Search period start: 25 July 2016 04:34
Search period end: 26 July 2016 04:34
Location: Niverville, 49.6028°N, 97.0419°W

Satellite Date Start Highest point End Downlink Frequencies (MHz)
Time Altitude Azimuth
ISS 25 Jul 04:39:27 04:42:36 48° 208° (SSW) 04:45:46 145.825
KKS-1 25 Jul 04:41:00 04:45:23 60° 258° (WSW) 04:49:49 437.445
Cosmos 2499 25 Jul 04:46:21 04:54:05 53° 270° (W) 05:01:15 435.465 / 435.565
MOZHAYETS 4 25 Jul 04:57:30 05:01:56 44° 262° (W) 05:06:23
ITAMSAT 1 25 Jul 05:00:08 05:05:20 71° 289° (WNW) 05:10:30 435.822/435.867
Oscar 19 25 Jul 05:12:28 05:14:54 13° 308° (NW) 05:17:20 437.125/150
STARS 25 Jul 05:26:48 05:30:56 41° 262° (W) 05:35:09 437.465
RS-15 25 Jul 05:44:14 05:46:26 11° 88° (E) 05:48:40 29.354- 29.394
HORYU 2 25 Jul 05:52:04 05:55:59 28° 95° (E) 05:59:50 437.375
AO-7 25 Jul 05:52:14 06:00:41 88° 291° (WNW) 06:09:01 29.400- 29.500
BEESAT 2 25 Jul 06:08:44 06:11:11 16° 247° (WSW) 06:13:38 435.950
DANDE 25 Jul 06:09:14 06:14:45 59° 283° (WNW) 06:18:52 436.750
AIST 2 25 Jul 06:09:45 06:13:47 46° 43° (NE) 06:17:49 435.215
CUBESAT XI-V 25 Jul 06:10:01 06:14:35 60° 259° (W) 06:19:10 437.345
PCSat 25 Jul 06:10:41 06:15:52 45° 244° (WSW) 06:20:59 145.827
O/OREOS (USA 219) 25 Jul 06:12:16 06:15:58 24° 49° (NE) 06:19:41 437.305
CUSAT 1 25 Jul 06:12:23 06:15:03 18° 289° (WNW) 06:17:22 437.405
GONETS M04 25 Jul 06:17:29 06:21:26 14° 291° (WNW) 06:25:26
ISS 25 Jul 06:18:04 06:18:24 10° 225° (SW) 06:18:45 145.825
CUTE-I 25 Jul 06:23:00 06:25:08 12° 85° (E) 06:27:15 437.470
GOMX 1 25 Jul 06:37:22 06:39:56 14° 87° (E) 06:42:34 467.674
NOAA 18 25 Jul 06:37:46 06:41:17 17° 88° (E) 06:44:45 137.9125
ITAMSAT 1 25 Jul 06:41:21 06:43:56 14° 309° (NW) 06:46:29 435.822/435.867
STRAND 1 25 Jul 06:41:23 06:45:46 29° 62° (ENE) 06:50:08 437.568
Cosmos 2499 25 Jul 06:44:03 06:45:03 10° 294° (WNW) 06:46:03 435.465 / 435.565
NOAA 15 25 Jul 06:49:27 06:53:51 26° 93° (E) 06:58:14 137.62
BRITE-PL 25 Jul 06:59:33 07:03:57 39° 98° (E) 07:08:39 437.365/2234.400
LilacSat-2 25 Jul 07:10:14 07:13:33 26° 94° (E) 07:16:51 437.200
HORYU 2 25 Jul 07:28:28 07:32:37 37° 293° (WNW) 07:36:44 437.375
Cubesat XI-IV 25 Jul 07:36:20 07:41:33 49° 99° (E) 07:46:42 437.490
RS-15 25 Jul 07:44:37 07:55:26 50° 112° (ESE) 08:06:48 29.354- 29.394
AO-7 25 Jul 07:45:48 07:52:30 28° 314° (NW) 07:59:11 29.400- 29.500
AIST 2 25 Jul 07:48:34 07:52:06 27° 243° (WSW) 07:55:37 435.215
Cosmos 2491 25 Jul 07:49:22 07:56:04 23° 55° (NE) 08:02:45 435.465 / 435.565
O/OREOS (USA 219) 25 Jul 07:51:16 07:55:41 54° 249° (WSW) 08:00:07 437.305
HO-68 25 Jul 08:00:30 08:04:44 16° 85° (E) 08:08:56 435.675
CUTE-I 25 Jul 08:00:43 08:06:07 77° 104° (ESE) 08:11:26 437.470
GOMX 1 25 Jul 08:13:41 08:18:37 89° 116° (ESE) 08:23:51 467.674
NOAA 18 25 Jul 08:17:04 08:22:40 85° 288° (WNW) 08:28:12 137.9125
DOVE 4 25 Jul 08:18:28 08:23:25 53° 99° (E) 08:28:33 437.250
STRAND 1 25 Jul 08:19:45 08:24:44 48° 261° (W) 08:29:44 437.568
NOAA 15 25 Jul 08:28:49 08:33:55 52° 292° (WNW) 08:39:00 137.62
SEEDS 25 Jul 08:31:16 08:32:54 12° 87° (E) 08:34:32 437.485
PRISM 25 Jul 08:31:17 08:35:04 38° 68° (ENE) 08:38:51 437.425
BRITE-PL 25 Jul 08:38:20 08:42:22 30° 294° (WNW) 08:46:39 437.365/2234.400
LilacSat-2 25 Jul 08:44:26 08:47:53 30° 293° (WNW) 08:51:17 437.200
COMPASS 1 25 Jul 08:47:16 08:49:04 12° 87° (E) 08:50:50 437.405
CINEMA 3 25 Jul 08:47:16 08:51:50 34° 95° (E) 08:56:22 145.822/145.860
UNISAT 6 25 Jul 08:59:29 09:00:32 11° 52° (NE) 09:01:35 437.425
CANX-2 25 Jul 09:07:47 09:11:50 42° 98° (E) 09:15:50 2200.000
Cubesat XI-IV 25 Jul 09:16:48 09:21:25 30° 299° (WNW) 09:26:00 437.490
AAUSAT CUBESAT 2 25 Jul 09:16:53 09:19:58 20° 92° (E) 09:23:01 437.432
CUTE 1.7 + AOD 2 25 Jul 09:21:37 09:25:46 51° 99° (E) 09:29:52 437.475
YUBILEINY 25 Jul 09:25:53 09:32:42 26° 78° (ENE) 09:39:32 435.215
ANTELSAT 25 Jul 09:35:12 09:38:39 21° 60° (ENE) 09:42:08 437.575/2403.000
SO-50 25 Jul 09:38:52 09:43:33 47° 122° (ESE) 09:48:12 436.795
AO-7 25 Jul 09:41:00 09:42:29 11° 339° (NNW) 09:43:58 29.400- 29.500
CUTE-I 25 Jul 09:41:44 09:45:36 21° 304° (NW) 09:49:27 437.470
Cosmos 2491 25 Jul 09:45:36 09:54:25 84° 81° (E) 10:03:13 435.465 / 435.565
HO-68 25 Jul 09:46:26 09:53:42 75° 105° (ESE) 10:00:53 435.675
UWE-3 25 Jul 09:52:37 09:56:47 31° 94° (E) 10:00:50 435.000/436.395/437.385
GOMX 1 25 Jul 09:53:09 09:56:08 16° 302° (WNW) 09:59:11 467.674
RS-15 25 Jul 09:55:59 10:07:37 67° 319° (NW) 10:19:54 29.354- 29.394
DOVE 4 25 Jul 09:56:43 10:00:51 26° 297° (WNW) 10:05:07 437.250
ZACube-1 25 Jul 09:58:35 10:02:18 24° 92° (E) 10:05:56 437.345
NOAA 18 25 Jul 09:58:58 10:02:34 18° 307° (NW) 10:06:09 137.9125
FUNcube-1 25 Jul 09:59:00 10:02:36 23° 92° (E) 10:06:09 145.935
DELFI C3 25 Jul 10:00:46 10:01:09 10° 86° (E) 10:01:32 145.870
SEEDS 25 Jul 10:04:59 10:09:11 79° 286° (WNW) 10:13:21 437.485
PRISM 25 Jul 10:07:12 10:10:30 23° 266° (W) 10:13:49 437.425
CUBEBUG 2 25 Jul 10:09:39 10:14:24 63° 101° (E) 10:19:02 437.445
NOAA 15 25 Jul 10:11:36 10:12:34 10° 312° (NW) 10:13:32 137.62
TIGRISAT 25 Jul 10:16:21 10:20:43 43° 68° (ENE) 10:25:11 435.000
COMPASS 1 25 Jul 10:21:00 10:25:09 75° 286° (WNW) 10:29:16 437.405
CINEMA 3 25 Jul 10:24:22 10:29:00 38° 293° (WNW) 10:33:38 145.822/145.860
UNISAT 6 25 Jul 10:31:44 10:36:18 62° 72° (ENE) 10:40:58 437.425
Cosmos 2504 25 Jul 10:37:11 10:44:01 26° 78° (ENE) 10:50:49 435.465 / 435.565
NANOSAT C BR1 25 Jul 10:37:16 10:39:30 14° 57° (ENE) 10:41:45 145.865
DUCHIFAT 1 25 Jul 10:42:29 10:44:51 15° 58° (ENE) 10:47:15 145.980
CANX-2 25 Jul 10:44:07 10:47:29 23° 296° (WNW) 10:50:49 2200.000
Oscar 11 25 Jul 10:44:10 10:48:30 65° 101° (ESE) 10:52:46 145.826/435.025
AAUSAT CUBESAT 2 25 Jul 10:51:44 10:55:41 45° 290° (WNW) 10:59:36 437.432
QB50P1 25 Jul 10:57:09 11:00:24 22° 62° (ENE) 11:03:40 145.935-145.965
CUTE 1.7 + AOD 2 25 Jul 10:58:12 11:01:17 20° 298° (WNW) 11:04:20 437.475
M-CUBED/EXP-1 PRIME 25 Jul 10:59:22 11:03:26 29° 100° (E) 11:07:32 437.505
POPSAT HIP 1 25 Jul 11:03:10 11:06:35 24° 63° (ENE) 11:10:02 437.405
BUGSAT 1 25 Jul 11:06:59 11:08:40 12° 56° (NE) 11:10:20 437.445
ANTELSAT 25 Jul 11:10:21 11:14:56 61° 259° (W) 11:19:38 437.575/2403.000
SO-50 25 Jul 11:19:40 11:24:11 37° 322° (NW) 11:28:40 436.795
YUBILEINY 25 Jul 11:19:41 11:28:30 82° 281° (WNW) 11:37:25 435.215
QB50P2 25 Jul 11:22:53 11:26:50 38° 68° (ENE) 11:30:49 145.880/145.840
POLYITAN 1 25 Jul 11:25:30 11:29:28 39° 68° (ENE) 11:33:29 437.675
AUBIESAT-1 25 Jul 11:27:13 11:31:38 43° 104° (ESE) 11:36:03 437.475
UWE-3 25 Jul 11:29:00 11:33:16 36° 294° (WNW) 11:37:26 435.000/436.395/437.385
HUMSAT D 25 Jul 11:32:03 11:36:10 47° 99° (E) 11:40:11 437.325/437.525
DELFI C3 25 Jul 11:32:38 11:36:36 84° 284° (WNW) 11:40:32 145.870
ZACube-1 25 Jul 11:34:27 11:38:47 44° 291° (WNW) 11:43:02 437.345
FUNcube-1 25 Jul 11:34:44 11:39:05 46° 291° (WNW) 11:43:20 145.935
HO-68 25 Jul 11:34:51 11:40:50 30° 306° (NW) 11:46:49 435.675
ESTCUBE 1 25 Jul 11:36:01 11:37:13 11° 86° (E) 11:38:26 437.505/2401.250
SEEDS 25 Jul 11:42:59 11:44:10 11° 304° (NW) 11:45:21 437.485
Cosmos 2491 25 Jul 11:43:34 11:50:14 25° 282° (WNW) 11:56:55 435.465 / 435.565
CUBEBUG 2 25 Jul 11:47:05 11:50:34 21° 300° (WNW) 11:54:01 437.445
TIGRISAT 25 Jul 11:53:40 11:57:34 26° 267° (W) 12:01:33 435.000
JAS-2 25 Jul 11:54:19 11:59:29 32° 63° (ENE) 12:04:15 435.910
COMPASS 1 25 Jul 11:59:14 11:59:58 10° 305° (NW) 12:00:42 437.405
VELOX 1 25 Jul 12:01:34 12:03:08 12° 87° (E) 12:04:42 145.980
CUBEBUG 1 25 Jul 12:07:34 12:10:12 15° 89° (E) 12:12:50 437.445
UNISAT 6 25 Jul 12:10:12 12:13:26 19° 270° (W) 12:16:44 437.425
NANOSAT C BR1 25 Jul 12:10:24 12:14:39 82° 256° (WSW) 12:18:57 145.865
RS-15 25 Jul 12:11:39 12:22:46 40° 351° (N) 12:34:13 29.354- 29.394
DUCHIFAT 1 25 Jul 12:15:47 12:19:59 77° 255° (WSW) 12:24:17 145.980
Oscar 11 25 Jul 12:21:20 12:24:11 17° 300° (WNW) 12:27:01 145.826/435.025
Cosmos 2504 25 Jul 12:27:30 12:36:24 86° 280° (W) 12:45:17 435.465 / 435.565
QB50P1 25 Jul 12:31:47 12:35:54 47° 261° (W) 12:40:03 145.935-145.965
M-CUBED/EXP-1 PRIME 25 Jul 12:33:40 12:38:02 43° 298° (WNW) 12:42:30 437.505
POPSAT HIP 1 25 Jul 12:38:08 12:42:10 42° 262° (W) 12:46:16 437.405
BUGSAT 1 25 Jul 12:39:16 12:43:22 89° 69° (ENE) 12:47:33 437.445
Gurwin Techsat 1B 25 Jul 12:40:39 12:43:11 14° 51° (NE) 12:45:45 435.225
AISAT 25 Jul 12:44:18 12:48:17 31° 96° (E) 12:52:15 437.250
DX 1 25 Jul 12:51:42 12:55:23 26° 95° (E) 12:59:04 434.975-435.025
QB50P2 25 Jul 12:59:12 13:02:45 25° 266° (W) 13:06:20 145.880/145.840
POLYITAN 1 25 Jul 13:01:52 13:05:24 25° 266° (W) 13:08:58 437.675
AUBIESAT-1 25 Jul 13:01:56 13:05:55 30° 301° (WNW) 13:09:56 437.475
SO-50 25 Jul 13:03:05 13:05:59 16° 345° (NNW) 13:08:51 436.795
HUMSAT D 25 Jul 13:08:17 13:11:30 21° 298° (WNW) 13:14:41 437.325/437.525
UKube-1 25 Jul 13:09:17 13:13:09 31° 96° (E) 13:16:59 .
DELFI C3 25 Jul 13:09:51 13:10:47 11° 303° (WNW) 13:11:44 145.870
ESTCUBE 1 25 Jul 13:10:14 13:14:45 85° 103° (ESE) 13:19:15 437.505/2401.250
Oscar 19 25 Jul 13:13:42 13:18:30 42° 66° (ENE) 13:23:19 437.125/150
AO-7 25 Jul 13:15:47 13:20:40 17° 35° (NE) 13:25:33 29.400- 29.500
YUBILEINY 25 Jul 13:20:11 13:26:52 23° 305° (NW) 13:33:36 435.215
50 SAT 25 Jul 13:29:22 13:33:01 86° 283° (WNW) 13:36:36 437.505
VELOX 1 25 Jul 13:35:47 13:40:16 89° 269° (W) 13:44:42 145.980
JAS-2 25 Jul 13:38:43 13:44:30 46° 261° (W) 13:49:46 435.910
CUBEBUG 1 25 Jul 13:42:35 13:46:56 67° 288° (WNW) 13:51:19 437.445
SPROUT 25 Jul 13:46:28 13:50:46 61° 101° (E) 13:55:02 437.525
Gurwin Techsat 1B 25 Jul 14:16:56 14:22:13 68° 71° (ENE) 14:27:31 435.225
BUGSAT 1 25 Jul 14:18:40 14:19:24 10° 274° (W) 14:20:08 437.445
AISAT 25 Jul 14:20:45 14:24:47 34° 294° (WNW) 14:28:47 437.250
Cosmos 2504 25 Jul 14:24:09 14:31:10 25° 303° (WNW) 14:38:07 435.465 / 435.565
RS-15 25 Jul 14:27:07 14:38:50 48° 24° (NNE) 14:50:40 29.354- 29.394
AIST 1 25 Jul 14:27:16 14:31:28 66° 97° (E) 14:35:43
DX 1 25 Jul 14:27:37 14:31:42 39° 293° (WNW) 14:35:46 434.975-435.025
ITUPSAT 1 25 Jul 14:36:00 14:37:50 12° 86° (E) 14:39:39 437.325
ITAMSAT 1 25 Jul 14:43:24 14:48:20 44° 66° (ENE) 14:53:18 435.822/435.867
UKube-1 25 Jul 14:45:19 14:49:12 33° 294° (WNW) 14:53:04 .
SO-50 25 Jul 14:45:46 14:48:22 14° 10° (N) 14:50:57 436.795
ESTCUBE 1 25 Jul 14:48:29 14:50:57 15° 303° (WNW) 14:53:24 437.505/2401.250
TISAT 1 25 Jul 14:49:22 14:53:39 70° 104° (ESE) 14:57:53 437.305
Oscar 19 25 Jul 14:53:26 14:57:56 31° 265° (W) 15:02:30 437.125/150
CUSAT 1 25 Jul 14:56:48 14:59:06 23° 73° (ENE) 15:01:41 437.405
AO-7 25 Jul 15:03:38 15:11:36 51° 58° (ENE) 15:19:34 29.400- 29.500
AO-85 25 Jul 15:13:00 15:18:06 47° 121° (ESE) 15:22:59 145.980
VELOX 1 25 Jul 15:13:50 15:16:05 14° 304° (NW) 15:18:19 145.980
CUBEBUG 1 25 Jul 15:21:39 15:22:25 10° 306° (NW) 15:23:12 437.445
SPROUT 25 Jul 15:23:21 15:26:18 18° 300° (WNW) 15:29:15 437.525
SWISSCUBE 25 Jul 15:28:20 15:32:49 39° 98° (E) 15:37:16 437.505
GONETS M04 25 Jul 15:28:36 15:36:10 35° 83° (E) 15:43:46
Cosmos 2499 25 Jul 15:34:53 15:42:07 30° 81° (E) 15:49:12 435.465 / 435.565
BEESAT 25 Jul 15:49:50 15:54:33 56° 101° (E) 15:59:13 436.000
Gurwin Techsat 1B 25 Jul 15:58:48 16:02:41 20° 270° (W) 16:06:35 435.225
AIST 1 25 Jul 16:07:03 16:09:34 15° 296° (WNW) 16:12:07
ITUPSAT 1 25 Jul 16:11:36 16:16:25 85° 102° (ESE) 16:21:12 437.325
ITAMSAT 1 25 Jul 16:23:22 16:27:57 31° 265° (W) 16:32:35 435.822/435.867
SO-50 25 Jul 16:26:08 16:30:19 30° 34° (NE) 16:34:24 436.795
TISAT 1 25 Jul 16:26:10 16:28:48 16° 301° (WNW) 16:31:26 437.305
KKS-1 25 Jul 16:28:12 16:31:26 19° 91° (E) 16:34:40 437.445
NOAA 18 25 Jul 16:32:32 16:33:33 10° 45° (NE) 16:34:34 137.9125
NOAA 15 25 Jul 16:37:47 16:39:58 13° 50° (NE) 16:42:09 137.62
CUSAT 1 25 Jul 16:39:19 16:40:59 14° 266° (W) 16:42:47 437.405
RS-15 25 Jul 16:40:26 16:52:50 87° 234° (SW) 17:05:09 29.354- 29.394
DANDE 25 Jul 16:43:19 16:45:48 39° 262° (W) 16:48:18 436.750
MOZHAYETS 4 25 Jul 16:48:02 16:52:09 32° 95° (E) 16:56:14
AO-85 25 Jul 16:53:44 16:58:43 40° 320° (NW) 17:03:26 145.980
HORYU 2 25 Jul 16:53:54 16:58:11 45° 68° (ENE) 17:02:28 437.375
AO-7 25 Jul 16:56:26 17:04:26 48° 260° (W) 17:12:31 29.400- 29.500
SWISSCUBE 25 Jul 17:06:22 17:10:31 30° 297° (WNW) 17:14:39 437.505
STARS 25 Jul 17:11:48 17:15:33 26° 94° (E) 17:19:17 437.465
GONETS M04 25 Jul 17:23:56 17:32:31 63° 285° (WNW) 17:41:13
Cubesat XI-IV 25 Jul 17:24:29 17:28:33 22° 57° (ENE) 17:32:36 437.490
Cosmos 2499 25 Jul 17:25:36 17:34:31 77° 282° (WNW) 17:43:11 435.465 / 435.565
BEESAT 25 Jul 17:28:17 17:31:59 23° 300° (WNW) 17:35:41 436.000
CUTE-I 25 Jul 17:47:53 17:52:37 32° 62° (ENE) 17:57:21 437.470
GOMX 1 25 Jul 17:50:08 17:53:11 20° 60° (ENE) 17:56:20 467.674
ITUPSAT 1 25 Jul 17:50:45 17:53:39 16° 304° (NW) 17:56:31 437.325
DOVE 4 25 Jul 17:54:12 17:55:53 12° 54° (NE) 17:57:37 437.250
LilacSat-2 25 Jul 17:56:23 17:59:36 25° 66° (ENE) 18:02:52 437.200
CUBESAT XI-V 25 Jul 18:02:26 18:06:14 25° 93° (E) 18:10:01 437.345
KKS-1 25 Jul 18:03:56 18:08:22 56° 289° (WNW) 18:12:44 437.445
SO-50 25 Jul 18:06:31 18:11:07 59° 236° (SW) 18:15:35 436.795
NOAA 18 25 Jul 18:07:40 18:12:57 48° 66° (ENE) 18:18:16 137.9125
NOAA 15 25 Jul 18:13:36 18:18:47 64° 70° (ENE) 18:23:59 137.62
BRITE-PL 25 Jul 18:15:18 18:19:24 67° 74° (ENE) 18:23:35 437.365/2234.400
MOZHAYETS 4 25 Jul 18:25:12 18:29:21 34° 294° (WNW) 18:33:27
HORYU 2 25 Jul 18:31:18 18:34:56 24° 267° (W) 18:38:35 437.375
HO-68 25 Jul 18:34:08 18:39:28 23° 49° (NE) 18:44:49 435.675
AO-85 25 Jul 18:37:16 18:40:27 16° 342° (NNW) 18:43:30 145.980
STARS 25 Jul 18:47:52 18:52:02 40° 293° (WNW) 18:56:11 437.465
RS-15 25 Jul 18:53:54 19:03:46 30° 258° (WSW) 19:13:35 29.354- 29.394
Cubesat XI-IV 25 Jul 19:02:45 19:08:07 71° 257° (WSW) 19:13:32 437.490
PCSat 25 Jul 19:17:03 19:18:55 12° 102° (ESE) 19:20:47 145.827
Cosmos 2499 25 Jul 19:22:42 19:29:11 22° 305° (NW) 19:35:33 435.465 / 435.565
GONETS M04 25 Jul 19:26:09 19:31:31 17° 311° (NW) 19:36:56
SEEDS 25 Jul 19:26:50 19:29:28 16° 60° (ENE) 19:32:07 437.485
GOMX 1 25 Jul 19:26:52 19:30:56 51° 261° (W) 19:35:12 467.674
CUTE-I 25 Jul 19:27:23 19:32:32 45° 262° (W) 19:37:42 437.470
DOVE 4 25 Jul 19:28:28 19:32:46 79° 73° (ENE) 19:37:20 437.250
YUBILEINY 25 Jul 19:28:42 19:34:24 18° 49° (NE) 19:40:04 435.215
LilacSat-2 25 Jul 19:30:18 19:33:49 32° 264° (W) 19:37:22 437.200
CUBEBUG 2 25 Jul 19:37:48 19:40:10 14° 55° (NE) 19:42:35 437.445
CUBESAT XI-V 25 Jul 19:39:26 19:43:48 44° 291° (WNW) 19:48:11 437.345
COMPASS 1 25 Jul 19:41:57 19:44:36 17° 60° (ENE) 19:47:14 437.405
PHONESAT 2.4 25 Jul 19:44:20 19:45:47 13° 168° (SSE) 19:47:15 2401.200-2431.200
NOAA 18 25 Jul 19:48:55 19:53:48 31° 265° (W) 19:58:43 137.9125
CINEMA 3 25 Jul 19:52:56 19:57:16 46° 69° (ENE) 20:01:49 145.822/145.860
NOAA 15 25 Jul 19:55:04 19:59:01 21° 269° (W) 20:02:59 137.62
BRITE-PL 25 Jul 19:56:25 19:58:28 13° 272° (W) 20:00:32 437.365/2234.400
BEESAT 3 25 Jul 20:00:24 20:04:10 46° 123° (ESE) 20:07:58 437.485
BEESAT 2 25 Jul 20:03:22 20:06:48 29° 118° (ESE) 20:10:16 435.950
CANX-2 25 Jul 20:04:21 20:08:31 52° 71° (ENE) 20:12:42 2200.000
Oscar 11 25 Jul 20:09:47 20:11:38 13° 56° (NE) 20:13:29 145.826/435.025
AAUSAT CUBESAT 2 25 Jul 20:11:09 20:14:32 24° 64° (ENE) 20:17:54 437.432
CUTE 1.7 + AOD 2 25 Jul 20:18:04 20:22:18 63° 73° (ENE) 20:26:32 437.475
HO-68 25 Jul 20:19:04 20:26:16 84° 70° (ENE) 20:33:31 435.675
M-CUBED/EXP-1 PRIME 25 Jul 20:19:16 20:19:56 10° 45° (NE) 20:20:36 437.505
AO-85 25 Jul 20:20:24 20:22:50 14° 7° (N) 20:25:12 145.980
Cosmos 2504 25 Jul 20:24:10 20:27:46 13° 43° (NE) 20:31:16 435.465 / 435.565
STRAND 1 25 Jul 20:25:39 20:30:30 41° 98° (E) 20:35:19 437.568
AUBIESAT-1 25 Jul 20:45:03 20:47:19 15° 50° (NE) 20:49:40 437.475
Cubesat XI-IV 25 Jul 20:47:34 20:49:11 11° 276° (W) 20:50:48 437.490
DELFI C3 25 Jul 20:50:15 20:52:00 13° 58° (ENE) 20:53:44 145.870
UWE-3 25 Jul 20:53:18 20:57:37 42° 68° (ENE) 21:02:02 435.000/436.395/437.385
PCSat 25 Jul 20:55:56 21:01:19 68° 121° (ESE) 21:06:44 145.827
ZACube-1 25 Jul 20:58:07 21:02:10 33° 66° (ENE) 21:06:16 437.345
FUNcube-1 25 Jul 20:58:14 21:02:13 31° 65° (ENE) 21:06:15 145.935
Cosmos 2491 25 Jul 20:59:02 21:04:52 20° 74° (ENE) 21:10:41 435.465 / 435.565
SEEDS 25 Jul 21:00:30 21:04:43 67° 258° (WSW) 21:08:57 437.485
DOVE 4 25 Jul 21:09:10 21:11:11 13° 275° (W) 21:13:13 437.250
CUBEBUG 2 25 Jul 21:11:26 21:16:02 84° 73° (ENE) 21:20:48 437.445
COMPASS 1 25 Jul 21:15:33 21:19:43 64° 258° (WSW) 21:23:53 437.405
PHONESAT 2.4 25 Jul 21:19:42 21:21:35 15° 184° (S) 21:23:28 2401.200-2431.200
YUBILEINY 25 Jul 21:24:30 21:33:20 65° 75° (ENE) 21:42:05 435.215
CINEMA 3 25 Jul 21:30:57 21:34:39 24° 269° (W) 21:38:31 145.822/145.860
BEESAT 3 25 Jul 21:38:34 21:42:01 28° 323° (NW) 21:45:30 437.485
BEESAT 2 25 Jul 21:40:46 21:44:32 40° 318° (NW) 21:48:20 435.950
CANX-2 25 Jul 21:41:40 21:44:42 19° 269° (W) 21:47:44 2200.000
Oscar 11 25 Jul 21:42:43 21:47:06 84° 72° (ENE) 21:51:28 145.826/435.025
PRISM 25 Jul 21:43:28 21:47:10 32° 97° (E) 21:50:53 437.425
AAUSAT CUBESAT 2 25 Jul 21:45:56 21:49:51 39° 263° (W) 21:53:46 437.432
M-CUBED/EXP-1 PRIME 25 Jul 21:49:47 21:53:33 63° 66° (ENE) 21:57:40 437.505
AIST 2 25 Jul 21:50:10 21:53:16 21° 115° (ESE) 21:56:24 435.215
CUTE 1.7 + AOD 2 25 Jul 21:55:58 21:58:34 16° 271° (W) 22:01:09 437.475
AO-85 25 Jul 22:00:54 22:04:54 27° 32° (NNE) 22:08:36 145.980
STRAND 1 25 Jul 22:05:03 22:09:35 32° 297° (WNW) 22:14:05 437.568
O/OREOS (USA 219) 25 Jul 22:07:30 22:11:57 76° 115° (ESE) 22:16:27 437.305
HO-68 25 Jul 22:09:24 22:14:50 23° 271° (W) 22:20:19 435.675
Cosmos 2504 25 Jul 22:15:44 22:23:50 49° 70° (ENE) 22:31:18 435.465 / 435.565
AUBIESAT-1 25 Jul 22:17:18 22:21:09 82° 252° (WSW) 22:25:21 437.475
DELFI C3 25 Jul 22:22:17 22:26:17 82° 258° (WSW) 22:30:17 145.870
HUMSAT D 25 Jul 22:26:58 22:31:13 58° 72° (ENE) 22:35:28 437.325/437.525
UWE-3 25 Jul 22:30:21 22:34:13 27° 267° (W) 22:38:11 435.000/436.395/437.385
FUNcube-1 25 Jul 22:34:13 22:38:23 36° 264° (W) 22:42:38 145.935
ZACube-1 25 Jul 22:34:17 22:38:25 34° 264° (W) 22:42:37 437.345
ESTCUBE 1 25 Jul 22:38:45 22:41:53 19° 60° (ENE) 22:45:01 437.505/2401.250
PCSat 25 Jul 22:40:25 22:45:11 30° 323° (NW) 22:49:57 145.827
CUBEBUG 2 25 Jul 22:51:01 22:53:19 14° 274° (W) 22:55:40 437.445
Cosmos 2491 25 Jul 22:51:37 23:00:20 82° 97° (E) 23:09:05 435.465 / 435.565
ISS 25 Jul 22:57:44 23:00:26 24° 144° (SE) 23:03:09 145.825
ANTELSAT 25 Jul 22:58:17 23:01:57 22° 91° (E) 23:05:33 437.575/2403.000
VELOX 1 25 Jul 23:02:20 23:05:25 19° 60° (ENE) 23:08:33 145.980
CUBEBUG 1 25 Jul 23:07:28 23:10:50 23° 62° (ENE) 23:14:13 437.445
SPROUT 25 Jul 23:11:21 23:12:55 12° 55° (NE) 23:14:29 437.525
PRISM 25 Jul 23:18:55 23:22:26 28° 295° (WNW) 23:25:55 437.425
BEESAT 3 25 Jul 23:19:58 23:20:58 11° 346° (NNW) 23:21:57 437.485
BEESAT 2 25 Jul 23:21:31 23:23:24 13° 340° (NNW) 23:25:17 435.950
YUBILEINY 25 Jul 23:21:57 23:29:37 35° 278° (W) 23:37:14 435.215
Oscar 11 25 Jul 23:22:06 23:23:50 12° 273° (W) 23:25:33 145.826/435.025
M-CUBED/EXP-1 PRIME 25 Jul 23:26:28 23:28:37 14° 267° (W) 23:30:51 437.505
AIST 2 25 Jul 23:27:22 23:31:25 57° 314° (NW) 23:35:32 435.215
TIGRISAT 25 Jul 23:39:54 23:44:29 50° 99° (E) 23:48:56 435.000
AO-85 25 Jul 23:41:16 23:45:47 65° 235° (SW) 23:49:53 145.980
AISAT 25 Jul 23:45:36 23:49:48 47° 69° (ENE) 23:54:02 437.250
O/OREOS (USA 219) 25 Jul 23:48:44 23:51:55 19° 315° (NW) 23:55:07 437.305
DX 1 25 Jul 23:51:07 23:55:08 39° 67° (ENE) 23:59:11 434.975-435.025
NANOSAT C BR1 25 Jul 23:52:14 23:54:04 12° 87° (E) 23:55:51 145.865
UNISAT 6 25 Jul 23:55:41 00:00:24 75° 102° (ESE) 00:04:58 437.425
DUCHIFAT 1 25 Jul 23:57:08 23:59:10 13° 88° (E) 00:01:11 145.980
HUMSAT D 26 Jul 00:04:18 00:07:11 17° 270° (W) 00:10:06 437.325/437.525
UKube-1 26 Jul 00:07:41 00:11:46 45° 69° (ENE) 00:15:55 .
Cosmos 2504 26 Jul 00:09:27 00:17:09 44° 274° (W) 00:24:20 435.465 / 435.565
50 SAT 26 Jul 00:10:39 00:14:20 81° 75° (ENE) 00:18:01 437.505
TISAT 1 26 Jul 00:12:12 00:14:05 13° 56° (NE) 00:15:58 437.305
QB50P1 26 Jul 00:12:35 00:15:51 21° 92° (E) 00:19:05 145.935-145.965
ESTCUBE 1 26 Jul 00:13:49 00:18:16 63° 258° (WSW) 00:22:45 437.505/2401.250
POPSAT HIP 1 26 Jul 00:18:44 00:22:13 23° 93° (E) 00:25:39 437.405
BUGSAT 1 26 Jul 00:19:52 00:20:06 10° 86° (E) 00:20:20 437.445
PCSat 26 Jul 00:27:43 00:30:24 14° 348° (NNW) 00:33:06 145.827
AIST 1 26 Jul 00:29:53 00:33:35 26° 70° (ENE) 00:37:16
ISS 26 Jul 00:33:20 00:36:36 88° 344° (NNW) 00:39:53 145.825
ANTELSAT 26 Jul 00:34:25 00:38:57 50° 290° (WNW) 00:43:23 437.575/2403.000
VELOX 1 26 Jul 00:37:10 00:41:30 59° 259° (W) 00:45:53 145.980
QB50P2 26 Jul 00:38:54 00:42:57 38° 97° (E) 00:46:58 145.880/145.840
POLYITAN 1 26 Jul 00:41:32 00:45:36 39° 97° (E) 00:49:38 437.675
CUBEBUG 1 26 Jul 00:42:43 00:46:52 46° 261° (W) 00:51:04 437.445
JAS-2 26 Jul 00:43:16 00:46:28 16° 89° (E) 00:49:46 435.910
SPROUT 26 Jul 00:43:53 00:48:09 80° 75° (ENE) 00:52:29 437.525
Cosmos 2491 26 Jul 00:51:06 00:58:18 28° 301° (WNW) 01:05:33 435.465 / 435.565
SWISSCUBE 26 Jul 01:04:24 01:06:32 13° 53° (NE) 01:08:40 437.505
AIST 2 26 Jul 01:08:10 01:10:46 16° 336° (NNW) 01:13:23 435.215
TIGRISAT 26 Jul 01:17:08 01:20:52 24° 298° (WNW) 01:24:31 435.000
Cosmos 2499 26 Jul 01:21:00 01:24:53 14° 45° (NE) 01:28:39 435.465 / 435.565
AISAT 26 Jul 01:23:07 01:26:31 22° 268° (W) 01:29:57 437.250
BEESAT 26 Jul 01:24:48 01:27:53 17° 57° (ENE) 01:30:58 436.000
NANOSAT C BR1 26 Jul 01:26:03 01:30:21 80° 288° (WNW) 01:34:38 145.865
DX 1 26 Jul 01:27:50 01:31:27 25° 266° (W) 01:35:05 434.975-435.025
DUCHIFAT 1 26 Jul 01:31:06 01:35:24 76° 285° (WNW) 01:39:39 145.980
GONETS M04 26 Jul 01:32:15 01:39:01 24° 55° (NE) 01:45:48
UNISAT 6 26 Jul 01:33:30 01:36:33 17° 302° (WNW) 01:39:34 437.425
UKube-1 26 Jul 01:44:42 01:48:03 22° 267° (W) 01:51:25 .
TISAT 1 26 Jul 01:44:52 01:49:05 90° 75° (ENE) 01:53:20 437.305
ITUPSAT 1 26 Jul 01:45:56 01:49:48 25° 61° (ENE) 01:53:40 437.325
QB50P1 26 Jul 01:47:44 01:51:53 47° 290° (WNW) 01:56:00 145.935-145.965
BUGSAT 1 26 Jul 01:51:52 01:56:10 84° 106° (ESE) 02:00:25 437.445
POPSAT HIP 1 26 Jul 01:54:06 01:58:10 42° 291° (WNW) 02:02:13 437.405
AIST 1 26 Jul 02:07:18 02:11:15 35° 269° (W) 02:15:13
ISS 26 Jul 02:09:58 02:13:11 58° 2° (N) 02:16:25 145.825
PCSat 26 Jul 02:13:22 02:16:13 14° 14° (NNE) 02:19:04 145.827
QB50P2 26 Jul 02:15:01 02:18:37 26° 296° (WNW) 02:22:11 145.880/145.840
POLYITAN 1 26 Jul 02:17:40 02:21:15 26° 296° (WNW) 02:24:49 437.675
SPROUT 26 Jul 02:22:52 02:24:41 12° 273° (W) 02:26:31 437.525
JAS-2 26 Jul 02:27:00 02:32:14 80° 287° (WNW) 02:37:46 435.910
Gurwin Techsat 1B 26 Jul 02:29:32 02:33:18 19° 89° (E) 02:37:04 435.225
BEESAT 3 26 Jul 02:36:21 02:39:33 22° 33° (NNE) 02:42:44 437.485
SWISSCUBE 26 Jul 02:38:45 02:43:32 74° 72° (ENE) 02:48:20 437.505
BEESAT 2 26 Jul 02:39:39 02:42:25 18° 28° (NNE) 02:45:12 435.950
ITAMSAT 1 26 Jul 02:54:50 02:55:33 10° 84° (E) 02:56:14 435.822/435.867
Oscar 19 26 Jul 02:59:30 03:04:40 67° 103° (ESE) 03:09:49 437.125/150
BEESAT 26 Jul 03:00:17 03:05:06 80° 256° (WSW) 03:09:56 436.000
NANOSAT C BR1 26 Jul 03:03:49 03:05:23 12° 305° (NW) 03:06:58 145.865
DUCHIFAT 1 26 Jul 03:09:02 03:10:20 11° 305° (NW) 03:11:40 145.980
Cosmos 2499 26 Jul 03:12:30 03:20:24 54° 72° (ENE) 03:27:40 435.465 / 435.565
ITUPSAT 1 26 Jul 03:22:39 03:27:20 52° 259° (W) 03:32:04 437.325
TISAT 1 26 Jul 03:24:25 03:25:23 11° 274° (W) 03:26:22 437.305
GONETS M04 26 Jul 03:28:28 03:37:20 84° 80° (E) 03:46:12
BUGSAT 1 26 Jul 03:28:45 03:30:57 14° 303° (WNW) 03:33:07 437.445
KKS-1 26 Jul 03:30:06 03:33:59 30° 64° (ENE) 03:37:53 437.445
ISS 26 Jul 03:46:28 03:49:44 73° 202° (SSW) 03:52:58 145.825
MOZHAYETS 4 26 Jul 03:53:45 03:58:13 50° 70° (ENE) 04:02:42
PCSat 26 Jul 03:56:27 04:01:21 33° 39° (NE) 04:06:14 145.827
CUSAT 1 26 Jul 04:05:00 04:08:03 21° 96° (E) 04:10:37 437.405
Gurwin Techsat 1B 26 Jul 04:08:30 04:13:49 71° 288° (WNW) 04:19:06 435.225
STARS 26 Jul 04:12:17 04:16:23 39° 67° (ENE) 04:20:32 437.465
BEESAT 3 26 Jul 04:13:39 04:17:37 69° 233° (SW) 04:21:33 437.485
JAS-2 26 Jul 04:13:51 04:16:37 15° 307° (NW) 04:19:26 435.910
DANDE 26 Jul 04:14:44 04:17:46 16° 92° (E) 04:20:23 436.750
BEESAT 2 26 Jul 04:16:53 04:20:55 76° 48° (NE) 04:24:55 435.950
SWISSCUBE 26 Jul 04:18:55 04:21:52 16° 271° (W) 04:24:50 437.505
AIST 2 26 Jul 04:28:32 04:31:11 16° 24° (NNE) 04:33:49 435.215
